Regional Weather Roundup
Issued by NWS Albany, NY

Home | Current Version | Previous Version | Text Only | Print | Product List | Glossary On
Versions: 1 2 3 4 5 6 7 8 9 10 11 12 13 14 15 16 17 18 19 20 21 22 23 24 25 26 27 28 29 30 31 32 33 34 35 36 37 38 39 40 41 42 43 44 45 46 47 48 49
000
ASUS41 KALY 230510
RWRALY

NEW YORK STATE HOURLY WEATHER ROUNDUP
NATIONAL WEATHER SERVICE ALBANY NY
100 AM EDT TUE SEP 23 2014

NOTE: "FAIR" INDICATES FEW OR NO CLOUDS BELOW 12,000 FEET WITH NO
SIGNIFICANT WEATHER AND/OR NO OBSTRUCTIONS TO VISIBILITY.

NYZ032-033-038>043-046>054-057>066-NYZ062>081-230600-
EAST


CITY           SKY/WX    TMP DP  RH WIND       PRES   REMARKS
ALBANY         PTCLDY    44  40  85 CALM      30.18R
GLENS FALLS    CLEAR     41  38  89 CALM      30.16R
POUGHKEEPSIE   CLEAR     45  41  86 CALM      30.16R
NEWBURGH       CLEAR     46  39  76 CALM      30.18R
MONTGOMERY     CLEAR     48  38  68 W5        30.17R
WHITE PLAINS   CLEAR     46  38  73 SW3       30.17R
ISLIP          CLEAR     52  40  63 NW5       30.15R
NEW YORK CITY  PTCLDY    57  40  52 NW12      30.18R
CENTRAL PARK   CLEAR     55  38  52 NW5       30.21R
$$

NYZ005>009-017-018-044>046-055-056-230600-
CENTRAL


CITY           SKY/WX    TMP DP  RH WIND       PRES   REMARKS
FULTON         MOCLDY    48  43  82 SW5       30.21R
SYRACUSE       PTCLDY    50  42  74 W9        30.21R
ROME           PTCLDY    44  43  96 CALM      30.21R
ELMIRA         CLEAR     39  39 100 SW3       30.23R
BINGHAMTON     CLEAR     43  38  82 W5        30.20R
MONTICELLO     CLEAR     45  37  76 W7        30.19R
$$

NYZ026>034-041>043-230600-
NORTH


CITY           SKY/WX    TMP DP  RH WIND       PRES   REMARKS
WATERTOWN      CLEAR     41  36  82 SW3       30.18R
FORT DRUM      NOT AVBL
MASSENA        CLEAR     41  39  93 SW8       30.14R
SARANAC LAKE   CLOUDY    41  39  93 SW7       30.12R
PLATTSBURGH    CLOUDY    44  40  85 CALM      30.13R
$$

NYZ001>004-010>016-019>021-230600-
WEST


CITY           SKY/WX    TMP DP  RH WIND       PRES   REMARKS
NIAGARA FALLS  CLEAR     44  39  82 W7        30.23R
BUFFALO        CLEAR     48  39  71 W7        30.24R
DUNKIRK        CLEAR     45  42  89 S6        30.25R
JAMESTOWN      CLEAR     43  39  87 CALM      30.25S
WELLSVILLE     CLEAR     41  38  89 W7        30.24R
ROCHESTER      CLEAR     44  41  89 SW6       30.22R
PENN YAN       CLEAR     47  42  83 SW7       30.23R
$$

             KEY
       WCI = WIND CHILL INDEX
       VSB = VISIBILITY
       HX  = HEAT INDEX
$$



USA.gov is the U.S. government's official web portal to all federal, state and local government web resources and services.